Time,TemperatureF,DewpointF,PressureIn,WindDirection,WindDirectionDegrees,WindSpeedMPH,WindSpeedGustMPH,Humidity,HourlyPrecipIn,Conditions,Clouds,dailyrainin,SoftwareType,DateUTC
2013-06-20 00:03:00,53.6,51.3,30.15,ESE,120,0.0,0.0,92,0.00,OVC,OVC,0.16,WeatherDisplay:10.37,2013-06-20 07:03:00,
2013-06-20 00:08:00,53.6,51.3,30.15,ESE,120,0.0,0.0,92,0.00,OVC,OVC,0.16,WeatherDisplay:10.37,2013-06-20 07:08:00,
2013-06-20 00:18:00,53.4,51.1,30.16,ESE,120,0.0,0.0,92,0.00,OVC,OVC,0.16,WeatherDisplay:10.37,2013-06-20 07:18:00,
2013-06-20 00:23:00,53.3,51.0,30.15,ESE,120,0.0,0.0,92,0.00,OVC,OVC,0.16,WeatherDisplay:10.37,2013-06-20 07:23:00,
2013-06-20 00:28:00,53.3,51.3,30.15,ESE,121,0.0,0.0,93,0.00,OVC,OVC,0.16,WeatherDisplay:10.37,2013-06-20 07:28:00,
2013-06-20 00:33:00,53.2,50.9,30.15,SE,127,0.0,0.0,92,0.00,OVC,OVC,0.16,WeatherDisplay:10.37,2013-06-20 07:33:00,
2013-06-20 00:38:00,53.2,50.9,30.15,SE,140,0.0,0.0,92,0.00,OVC,OVC,0.16,WeatherDisplay:10.37,2013-06-20 07:38:00,
2013-06-20 00:43:00,53.2,50.6,30.15,SSE,148,0.0,0.0,91,0.00,OVC,OVC,0.16,WeatherDisplay:10.37,2013-06-20 07:43:00,
2013-06-20 00:48:00,53.2,50.6,30.15,SSE,148,0.0,0.0,91,0.00,OVC,OVC,0.16,WeatherDisplay:10.37,2013-06-20 07:48:00,
2013-06-20 00:53:00,53.3,50.7,30.15,SSE,148,0.0,0.0,91,0.00,OVC,OVC,0.16,WeatherDisplay:10.37,2013-06-20 07:53:00,
2013-06-20 00:58:00,53.3,51.0,30.15,SSE,148,0.0,0.0,92,0.00,OVC,OVC,0.16,WeatherDisplay:10.37,2013-06-20 07:58:00,
2013-06-20 01:03:00,53.3,50.7,30.15,SSE,158,0.0,2.0,91,0.00,OVC,OVC,0.16,WeatherDisplay:10.37,2013-06-20 08:03:00,
2013-06-20 01:08:00,53.4,50.8,30.15,SSE,158,1.0,2.0,91,0.00,OVC,OVC,0.16,WeatherDisplay:10.37,2013-06-20 08:08:00,
2013-06-20 01:13:00,53.6,50.7,30.15,SSE,149,0.0,1.0,90,0.00,OVC,OVC,0.16,WeatherDisplay:10.37,2013-06-20 08:13:00,
2013-06-20 01:18:00,53.6,50.7,30.15,SSE,159,1.0,2.0,90,0.00,OVC,OVC,0.16,WeatherDisplay:10.37,2013-06-20 08:18:00,
2013-06-20 01:23:00,53.6,50.8,30.15,SSE,167,0.0,0.0,90,0.00,OVC,OVC,0.16,WeatherDisplay:10.37,2013-06-20 08:23:00,
2013-06-20 01:28:00,53.6,50.8,30.15,SSE,161,0.0,0.0,90,0.00,OVC,OVC,0.16,WeatherDisplay:10.37,2013-06-20 08:28:00,
2013-06-20 01:33:00,53.6,51.0,30.15,SSE,150,0.0,0.0,91,0.00,OVC,OVC,0.16,WeatherDisplay:10.37,2013-06-20 08:33:00,
2013-06-20 01:38:00,53.5,50.6,30.15,SSE,162,0.0,2.0,90,0.00,OVC,OVC,0.16,WeatherDisplay:10.37,2013-06-20 08:38:00,
2013-06-20 01:43:00,53.6,50.7,30.15,SSE,165,0.0,3.0,90,0.00,OVC,OVC,0.16,WeatherDisplay:10.37,2013-06-20 08:43:00,
2013-06-20 01:48:00,53.5,50.6,30.14,SSE,156,0.0,1.0,90,0.00,OVC,OVC,0.16,WeatherDisplay:10.37,2013-06-20 08:48:00,
2013-06-20 01:53:00,53.5,50.6,30.14,SSE,158,0.0,0.0,90,0.00,OVC,OVC,0.16,WeatherDisplay:10.37,2013-06-20 08:53:00,
2013-06-20 01:58:00,53.4,50.5,30.14,SSE,160,0.0,0.0,90,0.00,OVC,OVC,0.16,WeatherDisplay:10.37,2013-06-20 08:58:00,
2013-06-20 02:03:00,53.3,50.4,30.14,SSE,158,0.0,0.0,90,0.00,OVC,OVC,0.16,WeatherDisplay:10.37,2013-06-20 09:03:00,
2013-06-20 02:08:00,53.2,50.6,30.14,SSE,158,0.0,0.0,91,0.00,OVC,OVC,0.16,WeatherDisplay:10.37,2013-06-20 09:08:00,
2013-06-20 02:13:00,53.1,50.5,30.14,SSE,160,0.0,0.0,91,0.00,OVC,OVC,0.16,WeatherDisplay:10.37,2013-06-20 09:13:00,
2013-06-20 02:18:00,53.0,50.5,30.14,SSE,163,0.0,0.0,91,0.00,OVC,OVC,0.16,WeatherDisplay:10.37,2013-06-20 09:18:00,
2013-06-20 02:23:00,53.1,50.5,30.13,SSE,155,0.0,0.0,91,0.00,OVC,OVC,0.16,WeatherDisplay:10.37,2013-06-20 09:23:00,
2013-06-20 02:28:00,53.1,50.5,30.13,SE,145,0.0,0.0,91,0.00,OVC,OVC,0.16,WeatherDisplay:10.37,2013-06-20 09:28:00,
2013-06-20 02:33:00,53.1,50.5,30.13,SE,136,0.0,0.0,91,0.00,OVC,OVC,0.16,WeatherDisplay:10.37,2013-06-20 09:33:00,
2013-06-20 02:38:00,53.1,50.5,30.13,SE,133,0.0,0.0,91,0.00,OVC,OVC,0.16,WeatherDisplay:10.37,2013-06-20 09:38:00,
2013-06-20 02:43:00,53.2,50.6,30.13,SSE,160,0.0,0.0,91,0.00,OVC,OVC,0.16,WeatherDisplay:10.37,2013-06-20 09:43:00,
2013-06-20 02:48:00,53.3,50.7,30.13,South,172,0.0,0.0,91,0.00,OVC,OVC,0.16,WeatherDisplay:10.37,2013-06-20 09:48:00,
2013-06-20 02:53:00,53.3,50.4,30.13,SSE,156,0.0,0.0,90,0.00,OVC,OVC,0.16,WeatherDisplay:10.37,2013-06-20 09:53:00,
2013-06-20 02:58:00,53.3,50.7,30.13,SSE,156,0.0,0.0,91,0.00,OVC,OVC,0.16,WeatherDisplay:10.37,2013-06-20 09:58:00,
2013-06-20 03:03:00,53.3,51.0,30.12,SSE,155,0.0,0.0,92,0.00,OVC,OVC,0.16,WeatherDisplay:10.37,2013-06-20 10:03:00,
2013-06-20 03:08:00,53.3,51.0,30.13,SSE,156,0.0,1.0,92,0.00,OVC,OVC,0.16,WeatherDisplay:10.37,2013-06-20 10:08:00,
2013-06-20 03:13:00,53.2,50.6,30.12,SSE,157,0.0,0.0,91,0.00,OVC,OVC,0.16,WeatherDisplay:10.37,2013-06-20 10:13:00,
2013-06-20 03:18:00,53.1,50.6,30.12,SSE,156,0.0,0.0,91,0.00,OVC,OVC,0.16,WeatherDisplay:10.37,2013-06-20 10:18:00,
2013-06-20 03:23:00,53.1,50.5,30.13,SSE,159,0.0,2.0,91,0.00,OVC,OVC,0.16,WeatherDisplay:10.37,2013-06-20 10:23:00,
2013-06-20 03:28:00,53.1,50.5,30.12,SSE,160,0.0,0.0,91,0.00,OVC,OVC,0.16,WeatherDisplay:10.37,2013-06-20 10:28:00,
2013-06-20 03:33:00,53.1,50.5,30.12,WSW,250,0.0,3.0,91,0.00,OVC,OVC,0.16,WeatherDisplay:10.37,2013-06-20 10:33:00,
2013-06-20 03:38:00,53.1,50.5,30.12,WNW,298,0.0,0.0,91,0.00,OVC,OVC,0.16,WeatherDisplay:10.37,2013-06-20 10:38:00,
2013-06-20 03:43:00,53.1,50.5,30.12,WNW,298,0.0,0.0,91,0.00,OVC,OVC,0.16,WeatherDisplay:10.37,2013-06-20 10:43:00,
2013-06-20 03:48:00,53.0,50.2,30.12,NNW,330,0.0,1.0,90,0.00,OVC,OVC,0.16,WeatherDisplay:10.37,2013-06-20 10:48:00,
2013-06-20 03:53:00,53.1,50.2,30.12,NNW,347,0.0,1.0,90,0.00,OVC,OVC,0.16,WeatherDisplay:10.37,2013-06-20 10:53:00,
2013-06-20 03:58:00,53.1,50.2,30.12,NNW,340,0.0,1.0,90,0.00,OVC,OVC,0.16,WeatherDisplay:10.37,2013-06-20 10:58:00,
2013-06-20 04:03:00,53.1,50.2,30.12,NW,321,0.0,2.0,90,0.00,OVC,OVC,0.16,WeatherDisplay:10.37,2013-06-20 11:03:00,
2013-06-20 04:08:00,53.2,50.0,30.12,South,173,0.0,1.0,89,0.00,OVC,OVC,0.16,WeatherDisplay:10.37,2013-06-20 11:08:00,
2013-06-20 04:13:00,53.1,50.2,30.12,SSE,156,1.0,2.0,90,0.00,OVC,OVC,0.16,WeatherDisplay:10.37,2013-06-20 11:13:00,
2013-06-20 04:18:00,53.2,50.3,30.12,West,274,0.0,1.0,90,0.00,OVC,OVC,0.16,WeatherDisplay:10.37,2013-06-20 11:18:00,
2013-06-20 04:23:00,53.2,50.0,30.12,West,264,0.0,3.0,89,0.00,OVC,OVC,0.16,WeatherDisplay:10.37,2013-06-20 11:23:00,
2013-06-20 04:28:00,53.0,50.2,30.12,WSW,247,0.0,0.0,90,0.00,OVC,OVC,0.16,WeatherDisplay:10.37,2013-06-20 11:28:00,
2013-06-20 04:33:00,53.1,49.9,30.12,WNW,285,1.0,5.0,89,0.00,OVC,OVC,0.16,WeatherDisplay:10.37,2013-06-20 11:33:00,
2013-06-20 04:38:00,53.2,50.0,30.12,WNW,283,0.0,1.0,89,0.00,OVC,OVC,0.16,WeatherDisplay:10.37,2013-06-20 11:38:00,
2013-06-20 04:43:00,53.2,50.0,30.12,WSW,256,2.0,6.0,89,0.00,OVC,OVC,0.16,WeatherDisplay:10.37,2013-06-20 11:43:00,
2013-06-20 04:48:00,53.3,50.1,30.12,SW,236,1.0,2.0,89,0.00,OVC,OVC,0.16,WeatherDisplay:10.37,2013-06-20 11:48:00,
2013-06-20 04:53:00,53.3,50.1,30.12,NW,318,0.0,2.0,89,0.00,OVC,OVC,0.16,WeatherDisplay:10.37,2013-06-20 11:53:00,
2013-06-20 04:58:00,53.2,50.0,30.12,WNW,300,0.0,1.0,89,0.00,OVC,OVC,0.16,WeatherDisplay:10.37,2013-06-20 11:58:00,
2013-06-20 05:03:00,53.2,50.0,30.12,WSW,257,1.0,4.0,89,0.00,OVC,OVC,0.16,WeatherDisplay:10.37,2013-06-20 12:03:00,
2013-06-20 05:08:00,53.1,49.9,30.12,SSE,163,0.0,1.0,89,0.00,OVC,OVC,0.16,WeatherDisplay:10.37,2013-06-20 12:08:00,
2013-06-20 05:13:00,53.0,49.8,30.12,SE,145,0.0,1.0,89,0.00,OVC,OVC,0.16,WeatherDisplay:10.37,2013-06-20 12:13:00,
2013-06-20 05:18:00,53.0,49.8,30.12,SSE,161,0.0,1.0,89,0.00,OVC,OVC,0.16,WeatherDisplay:10.37,2013-06-20 12:18:00,
2013-06-20 05:23:00,53.0,49.8,30.12,WSW,253,0.0,1.0,89,0.00,OVC,OVC,0.16,WeatherDisplay:10.37,2013-06-20 12:23:00,
2013-06-20 05:28:00,52.9,50.0,30.12,NNW,331,0.0,1.0,90,0.00,OVC,OVC,0.16,WeatherDisplay:10.37,2013-06-20 12:28:00,
2013-06-20 05:33:00,52.8,49.7,30.12,NW,321,0.0,2.0,89,0.00,OVC,OVC,0.16,WeatherDisplay:10.37,2013-06-20 12:33:00,
2013-06-20 05:38:00,52.8,49.6,30.12,SSE,158,0.0,0.0,89,0.00,OVC,OVC,0.16,WeatherDisplay:10.37,2013-06-20 12:38:00,
2013-06-20 05:43:00,52.9,49.7,30.12,SSE,163,1.0,3.0,89,0.00,OVC,OVC,0.16,WeatherDisplay:10.37,2013-06-20 12:43:00,
2013-06-20 05:48:00,52.9,49.7,30.12,SE,139,0.0,1.0,89,0.00,OVC,OVC,0.16,WeatherDisplay:10.37,2013-06-20 12:48:00,
2013-06-20 05:53:00,52.9,49.7,30.12,ENE,78,0.0,1.0,89,0.00,OVC,OVC,0.16,WeatherDisplay:10.37,2013-06-20 12:53:00,
2013-06-20 05:58:00,52.9,50.0,30.12,North,354,0.0,0.0,90,0.00,OVC,OVC,0.16,WeatherDisplay:10.37,2013-06-20 12:58:00,
2013-06-20 06:03:00,53.0,49.8,30.12,South,174,0.0,2.0,89,0.00,OVC,OVC,0.16,WeatherDisplay:10.37,2013-06-20 13:03:00,
2013-06-20 06:08:00,53.2,50.0,30.12,SSE,156,0.0,2.0,89,0.00,OVC,OVC,0.16,WeatherDisplay:10.37,2013-06-20 13:08:00,
2013-06-20 06:13:00,53.2,50.0,30.12,SSE,159,1.0,2.0,89,0.00,OVC,OVC,0.16,WeatherDisplay:10.37,2013-06-20 13:13:00,
2013-06-20 06:18:00,53.4,50.2,30.12,SE,144,1.0,3.0,89,0.00,OVC,OVC,0.16,WeatherDisplay:10.37,2013-06-20 13:18:00,
2013-06-20 06:23:00,53.5,50.0,30.12,SSW,195,0.0,5.0,88,0.00,OVC,OVC,0.16,WeatherDisplay:10.37,2013-06-20 13:23:00,
2013-06-20 06:28:00,53.6,50.1,30.12,SW,233,0.0,2.0,88,0.00,OVC,OVC,0.16,WeatherDisplay:10.37,2013-06-20 13:28:00,
2013-06-20 06:33:00,53.6,50.1,30.11,South,186,0.0,4.0,88,0.00,OVC,OVC,0.16,WeatherDisplay:10.37,2013-06-20 13:33:00,
2013-06-20 06:38:00,53.6,50.1,30.11,SSE,158,1.0,3.0,88,0.00,OVC,OVC,0.16,WeatherDisplay:10.37,2013-06-20 13:38:00,
2013-06-20 06:43:00,53.7,50.2,30.11,SE,139,0.0,3.0,88,0.00,OVC,OVC,0.16,WeatherDisplay:10.37,2013-06-20 13:43:00,
2013-06-20 06:48:00,53.7,50.2,30.11,South,188,0.0,1.0,88,0.00,OVC,OVC,0.16,WeatherDisplay:10.37,2013-06-20 13:48:00,
2013-06-20 06:53:00,53.7,50.2,30.11,SW,219,1.0,4.0,88,0.00,OVC,OVC,0.16,WeatherDisplay:10.37,2013-06-20 13:53:00,
2013-06-20 06:58:00,53.7,50.2,30.11,SSW,206,1.0,1.0,88,0.00,OVC,OVC,0.16,WeatherDisplay:10.37,2013-06-20 13:58:00,
2013-06-20 07:03:00,53.7,50.2,30.11,WSW,246,0.0,3.0,88,0.00,RA,RA,0.00,WeatherDisplay:10.37,2013-06-20 14:03:00,
2013-06-20 07:08:00,53.8,50.0,30.11,West,269,1.0,5.0,87,0.00,RA,RA,0.00,WeatherDisplay:10.37,2013-06-20 14:08:00,
2013-06-20 07:13:00,53.9,50.1,30.11,SSW,204,1.0,2.0,87,0.00,OVC,OVC,0.00,WeatherDisplay:10.37,2013-06-20 14:13:00,
2013-06-20 07:18:00,54.0,50.2,30.11,South,180,1.0,4.0,87,0.00,OVC,OVC,0.00,WeatherDisplay:10.37,2013-06-20 14:18:00,
2013-06-20 07:23:00,54.1,50.3,30.11,SSE,160,0.0,4.0,87,0.00,OVC,OVC,0.00,WeatherDisplay:10.37,2013-06-20 14:23:00,
2013-06-20 07:28:00,54.2,50.4,30.11,South,182,1.0,3.0,87,0.00,OVC,OVC,0.00,WeatherDisplay:10.37,2013-06-20 14:28:00,
2013-06-20 07:33:00,54.3,50.5,30.11,South,186,1.0,4.0,87,0.00,OVC,OVC,0.00,WeatherDisplay:10.37,2013-06-20 14:33:00,
2013-06-20 07:38:00,54.5,50.7,30.11,SSE,162,0.0,2.0,87,0.00,OVC,OVC,0.00,WeatherDisplay:10.37,2013-06-20 14:38:00,
2013-06-20 07:43:00,54.5,50.7,30.11,SSE,160,0.0,4.0,87,0.00,OVC,OVC,0.00,WeatherDisplay:10.37,2013-06-20 14:43:00,
2013-06-20 07:48:00,54.6,50.8,30.10,SSE,149,0.0,2.0,87,0.00,OVC,OVC,0.00,WeatherDisplay:10.37,2013-06-20 14:48:00,
2013-06-20 07:53:00,54.7,50.6,30.10,NW,320,1.0,6.0,86,0.00,OVC,OVC,0.00,WeatherDisplay:10.37,2013-06-20 14:53:00,
2013-06-20 07:58:00,54.9,50.8,30.10,WNW,293,0.0,3.0,86,0.00,OVC,OVC,0.00,WeatherDisplay:10.37,2013-06-20 14:58:00,
2013-06-20 08:03:00,55.1,51.0,30.10,West,272,0.0,4.0,86,0.00,OVC,OVC,0.00,WeatherDisplay:10.37,2013-06-20 15:03:00,
2013-06-20 08:08:00,55.2,51.1,30.10,West,266,2.0,6.0,86,0.00,OVC,OVC,0.00,WeatherDisplay:10.37,2013-06-20 15:08:00,
2013-06-20 08:13:00,55.4,51.0,30.10,West,279,1.0,5.0,85,0.00,OVC,OVC,0.00,WeatherDisplay:10.37,2013-06-20 15:13:00,
2013-06-20 08:18:00,55.6,51.2,30.10,West,278,2.0,4.0,85,0.00,OVC,OVC,0.00,WeatherDisplay:10.37,2013-06-20 15:18:00,
2013-06-20 08:23:00,55.7,51.0,30.10,WSW,245,1.0,3.0,84,0.00,OVC,OVC,0.00,WeatherDisplay:10.37,2013-06-20 15:23:00,
2013-06-20 08:28:00,55.9,51.1,30.10,ESE,123,1.0,3.0,84,0.00,OVC,OVC,0.00,WeatherDisplay:10.37,2013-06-20 15:28:00,
2013-06-20 08:33:00,55.9,51.1,30.11,NW,315,2.0,7.0,84,0.00,OVC,OVC,0.00,WeatherDisplay:10.37,2013-06-20 15:33:00,
2013-06-20 08:38:00,55.9,50.8,30.10,WNW,288,2.0,7.0,83,0.00,OVC,OVC,0.00,WeatherDisplay:10.37,2013-06-20 15:38:00,
2013-06-20 08:43:00,56.1,51.7,30.10,West,263,0.0,2.0,85,0.00,OVC,OVC,0.00,WeatherDisplay:10.37,2013-06-20 15:43:00,
2013-06-20 08:48:00,56.3,51.2,30.10,SW,214,2.0,5.0,83,0.00,OVC,OVC,0.00,WeatherDisplay:10.37,2013-06-20 15:48:00,
2013-06-20 08:53:00,56.5,51.4,30.10,SW,214,0.0,4.0,83,0.00,OVC,OVC,0.00,WeatherDisplay:10.37,2013-06-20 15:53:00,
2013-06-20 09:03:00,57.1,51.6,30.10,SSW,212,1.0,4.0,82,0.00,OVC,OVC,0.00,WeatherDisplay:10.37,2013-06-20 16:03:00,
2013-06-20 09:08:00,57.4,52.3,30.10,North,0,1.0,3.0,83,0.00,OVC,OVC,0.00,WeatherDisplay:10.37,2013-06-20 16:08:00,
2013-06-20 09:13:00,57.5,52.0,30.10,SSE,163,2.0,3.0,82,0.00,OVC,OVC,0.00,WeatherDisplay:10.37,2013-06-20 16:13:00,
2013-06-20 09:18:00,57.4,51.9,30.10,South,189,1.0,6.0,82,0.00,OVC,OVC,0.00,WeatherDisplay:10.37,2013-06-20 16:18:00,
2013-06-20 09:23:00,57.2,51.4,30.10,SSW,198,2.0,6.0,81,0.00,OVC,OVC,0.00,WeatherDisplay:10.37,2013-06-20 16:23:00,
2013-06-20 09:28:00,57.1,51.3,30.11,South,175,3.0,6.0,81,0.00,OVC,OVC,0.00,WeatherDisplay:10.37,2013-06-20 16:28:00,
2013-06-20 09:33:00,57.1,51.3,30.10,South,191,1.0,5.0,81,0.00,OVC,OVC,0.00,WeatherDisplay:10.37,2013-06-20 16:33:00,
2013-06-20 09:38:00,57.1,51.7,30.10,WNW,301,1.0,4.0,82,0.00,OVC,OVC,0.00,WeatherDisplay:10.37,2013-06-20 16:38:00,
2013-06-20 09:43:00,57.2,52.1,30.10,WNW,288,0.0,4.0,83,0.00,OVC,OVC,0.00,WeatherDisplay:10.37,2013-06-20 16:43:00,
2013-06-20 09:48:00,57.2,51.8,30.10,West,259,1.0,4.0,82,0.00,OVC,OVC,0.00,WeatherDisplay:10.37,2013-06-20 16:48:00,
2013-06-20 09:53:00,57.1,51.3,30.10,WNW,298,2.0,8.0,81,0.00,OVC,OVC,0.00,WeatherDisplay:10.37,2013-06-20 16:53:00,
2013-06-20 09:58:00,57.1,51.3,30.10,NNW,342,1.0,6.0,81,0.00,OVC,OVC,0.00,WeatherDisplay:10.37,2013-06-20 16:58:00,
2013-06-20 10:08:00,57.4,50.9,30.10,SSE,152,3.0,6.0,79,0.00,OVC,OVC,0.00,WeatherDisplay:10.37,2013-06-20 17:08:00,
2013-06-20 10:13:00,57.7,51.6,30.10,West,269,1.0,6.0,80,0.00,OVC,OVC,0.00,WeatherDisplay:10.37,2013-06-20 17:13:00,
2013-06-20 10:18:00,57.8,51.7,30.10,WNW,284,3.0,6.0,80,0.00,OVC,OVC,0.00,WeatherDisplay:10.37,2013-06-20 17:18:00,
2013-06-20 10:23:00,57.9,51.4,30.10,West,260,0.0,2.0,79,0.00,OVC,OVC,0.00,WeatherDisplay:10.37,2013-06-20 17:23:00,
2013-06-20 10:28:00,58.0,51.2,30.10,WNW,297,2.0,6.0,78,0.00,OVC,OVC,0.00,WeatherDisplay:10.37,2013-06-20 17:28:00,
2013-06-20 10:33:00,58.1,51.6,30.10,NNW,336,1.0,3.0,79,0.00,OVC,OVC,0.00,WeatherDisplay:10.37,2013-06-20 17:33:00,
2013-06-20 10:38:00,58.1,51.3,30.10,SW,226,2.0,4.0,78,0.00,OVC,OVC,0.00,WeatherDisplay:10.37,2013-06-20 17:38:00,
2013-06-20 10:43:00,58.1,51.3,30.10,SW,236,2.0,7.0,78,0.00,OVC,OVC,0.00,WeatherDisplay:10.37,2013-06-20 17:43:00,
2013-06-20 10:48:00,58.0,51.2,30.10,South,182,1.0,2.0,78,0.00,OVC,OVC,0.00,WeatherDisplay:10.37,2013-06-20 17:48:00,
2013-06-20 10:53:00,58.0,51.2,30.10,South,174,0.0,4.0,78,0.00,OVC,OVC,0.00,WeatherDisplay:10.37,2013-06-20 17:53:00,
2013-06-20 10:58:00,57.9,51.4,30.10,WSW,245,0.0,4.0,79,0.00,OVC,OVC,0.00,WeatherDisplay:10.37,2013-06-20 17:58:00,
2013-06-20 11:03:00,58.0,51.2,30.10,SW,222,2.0,5.0,78,0.00,OVC,OVC,0.00,WeatherDisplay:10.37,2013-06-20 18:03:00,
2013-06-20 11:08:00,58.1,51.6,30.10,SSW,205,1.0,7.0,79,0.00,OVC,OVC,0.00,WeatherDisplay:10.37,2013-06-20 18:08:00,
2013-06-20 11:13:00,58.2,51.4,30.09,West,262,1.0,6.0,78,0.00,OVC,OVC,0.00,WeatherDisplay:10.37,2013-06-20 18:13:00,
2013-06-20 11:18:00,58.4,51.9,30.09,SW,233,1.0,4.0,79,0.00,OVC,OVC,0.00,WeatherDisplay:10.37,2013-06-20 18:18:00,
2013-06-20 11:23:00,58.6,51.4,30.09,South,180,0.0,3.0,77,0.00,OVC,OVC,0.00,WeatherDisplay:10.37,2013-06-20 18:23:00,
2013-06-20 11:28:00,58.7,51.5,30.10,South,178,1.0,4.0,77,0.00,OVC,OVC,0.00,WeatherDisplay:10.37,2013-06-20 18:28:00,
2013-06-20 11:33:00,58.6,51.4,30.10,SW,227,1.0,5.0,77,0.00,OVC,OVC,0.00,WeatherDisplay:10.37,2013-06-20 18:33:00,
2013-06-20 11:38:00,58.5,51.3,30.10,WSW,239,1.0,5.0,77,0.00,OVC,OVC,0.00,WeatherDisplay:10.37,2013-06-20 18:38:00,
2013-06-20 11:43:00,58.5,51.7,30.10,WSW,257,0.0,5.0,78,0.00,OVC,OVC,0.00,WeatherDisplay:10.37,2013-06-20 18:43:00,
2013-06-20 11:48:00,58.5,51.3,30.10,WSW,251,2.0,4.0,77,0.00,OVC,OVC,0.00,WeatherDisplay:10.37,2013-06-20 18:48:00,
2013-06-20 11:53:00,58.4,51.6,30.10,West,260,2.0,6.0,78,0.00,OVC,OVC,0.00,WeatherDisplay:10.37,2013-06-20 18:53:00,
2013-06-20 11:58:00,58.2,51.4,30.10,WNW,294,1.0,7.0,78,0.00,OVC,OVC,0.00,WeatherDisplay:10.37,2013-06-20 18:58:00,
2013-06-20 12:03:00,58.2,52.1,30.10,WNW,286,1.0,4.0,80,0.00,OVC,OVC,0.00,WeatherDisplay:10.37,2013-06-20 19:03:00,
2013-06-20 12:08:00,58.1,52.0,30.10,SW,236,0.0,2.0,80,0.00,OVC,OVC,0.00,WeatherDisplay:10.37,2013-06-20 19:08:00,
2013-06-20 12:13:00,58.2,52.1,30.10,West,273,0.0,5.0,80,0.00,OVC,OVC,0.00,WeatherDisplay:10.37,2013-06-20 19:13:00,
2013-06-20 12:18:00,58.6,52.7,30.10,West,273,1.0,3.0,81,0.00,OVC,OVC,0.00,WeatherDisplay:10.37,2013-06-20 19:18:00,
2013-06-20 12:23:00,58.7,51.9,30.10,WNW,282,1.0,4.0,78,0.00,OVC,OVC,0.00,WeatherDisplay:10.37,2013-06-20 19:23:00,
2013-06-20 12:28:00,58.9,52.1,30.10,WNW,282,0.0,4.0,78,0.00,OVC,OVC,0.00,WeatherDisplay:10.37,2013-06-20 19:28:00,
2013-06-20 12:33:00,59.2,52.0,30.10,SW,214,0.0,2.0,77,0.00,OVC,OVC,0.00,WeatherDisplay:10.37,2013-06-20 19:33:00,
2013-06-20 12:38:00,59.5,51.9,30.10,SE,146,1.0,4.0,76,0.00,OVC,OVC,0.00,WeatherDisplay:10.37,2013-06-20 19:38:00,
2013-06-20 12:43:00,59.6,51.7,30.10,SSE,152,0.0,4.0,75,0.00,OVC,OVC,0.00,WeatherDisplay:10.37,2013-06-20 19:43:00,
2013-06-20 12:48:00,59.8,51.9,30.10,SW,223,2.0,4.0,75,0.00,OVC,OVC,0.00,WeatherDisplay:10.37,2013-06-20 19:48:00,
2013-06-20 12:53:00,59.9,52.0,30.10,West,271,1.0,4.0,75,0.00,OVC,OVC,0.00,WeatherDisplay:10.37,2013-06-20 19:53:00,
2013-06-20 12:58:00,59.9,52.0,30.10,WNW,285,0.0,5.0,75,0.00,OVC,OVC,0.00,WeatherDisplay:10.37,2013-06-20 19:58:00,
2013-06-20 13:03:00,59.9,51.6,30.10,West,277,3.0,6.0,74,0.00,OVC,OVC,0.00,WeatherDisplay:10.37,2013-06-20 20:03:00,
2013-06-20 13:08:00,60.1,51.8,30.10,WSW,256,1.0,6.0,74,0.00,OVC,OVC,0.00,WeatherDisplay:10.37,2013-06-20 20:08:00,
2013-06-20 13:13:00,60.4,52.4,30.10,SSW,211,1.0,4.0,75,0.00,OVC,OVC,0.00,WeatherDisplay:10.37,2013-06-20 20:13:00,
2013-06-20 13:18:00,60.5,52.2,30.10,SW,236,1.0,4.0,74,0.00,OVC,OVC,0.00,WeatherDisplay:10.37,2013-06-20 20:18:00,
2013-06-20 13:23:00,60.4,52.1,30.10,WSW,246,0.0,4.0,74,0.00,OVC,OVC,0.00,WeatherDisplay:10.37,2013-06-20 20:23:00,
2013-06-20 13:28:00,60.5,52.5,30.10,SW,221,0.0,2.0,75,0.00,OVC,OVC,0.00,WeatherDisplay:10.37,2013-06-20 20:28:00,
2013-06-20 13:33:00,60.5,51.4,30.10,NNW,343,1.0,7.0,72,0.00,OVC,OVC,0.00,WeatherDisplay:10.37,2013-06-20 20:33:00,
2013-06-20 13:38:00,60.3,51.6,30.10,NW,317,2.0,10.0,73,0.00,OVC,OVC,0.00,WeatherDisplay:10.37,2013-06-20 20:38:00,
2013-06-20 13:43:00,60.2,52.2,30.10,WNW,285,1.0,7.0,75,0.00,OVC,OVC,0.00,WeatherDisplay:10.37,2013-06-20 20:43:00,
2013-06-20 13:48:00,60.2,51.9,30.10,West,273,1.0,3.0,74,0.00,OVC,OVC,0.00,WeatherDisplay:10.37,2013-06-20 20:48:00,
2013-06-20 13:53:00,60.0,52.1,30.10,WNW,287,2.0,6.0,75,0.00,OVC,OVC,0.00,WeatherDisplay:10.37,2013-06-20 20:53:00,
2013-06-20 13:58:00,59.9,51.6,30.10,WNW,282,2.0,5.0,74,0.00,OVC,OVC,0.00,WeatherDisplay:10.37,2013-06-20 20:58:00,
2013-06-20 14:03:00,59.6,51.3,30.11,SSW,209,1.0,3.0,74,0.01,RA,RA,0.01,WeatherDisplay:10.37,2013-06-20 21:03:00,
2013-06-20 14:08:00,59.5,51.2,30.11,WSW,244,1.0,14.0,74,0.00,RA,RA,0.01,WeatherDisplay:10.37,2013-06-20 21:08:00,
2013-06-20 14:13:00,59.2,50.9,30.11,SW,232,1.0,5.0,74,0.00,OVC,OVC,0.01,WeatherDisplay:10.37,2013-06-20 21:13:00,
2013-06-20 14:18:00,59.0,50.4,30.11,WSW,241,3.0,8.0,73,0.00,OVC,OVC,0.01,WeatherDisplay:10.37,2013-06-20 21:18:00,
2013-06-20 14:23:00,59.0,50.0,30.11,WNW,291,2.0,6.0,72,0.00,OVC,OVC,0.01,WeatherDisplay:10.37,2013-06-20 21:23:00,
2013-06-20 14:28:00,59.1,51.2,30.11,WNW,297,1.0,5.0,75,0.00,OVC,OVC,0.01,WeatherDisplay:10.37,2013-06-20 21:28:00,
2013-06-20 14:33:00,59.2,50.5,30.11,West,260,1.0,4.0,73,0.00,OVC,OVC,0.01,WeatherDisplay:10.37,2013-06-20 21:33:00,
2013-06-20 14:38:00,59.2,50.2,30.11,West,265,2.0,7.0,72,0.00,OVC,OVC,0.01,WeatherDisplay:10.37,2013-06-20 21:38:00,
2013-06-20 14:43:00,59.2,50.5,30.11,West,278,2.0,6.0,73,0.00,OVC,OVC,0.01,WeatherDisplay:10.37,2013-06-20 21:43:00,
2013-06-20 14:48:00,59.2,50.9,30.12,WSW,255,3.0,6.0,74,0.00,OVC,OVC,0.01,WeatherDisplay:10.37,2013-06-20 21:48:00,
2013-06-20 14:53:00,59.2,50.9,30.12,SW,229,1.0,6.0,74,0.00,OVC,OVC,0.01,WeatherDisplay:10.37,2013-06-20 21:53:00,
2013-06-20 14:58:00,59.2,51.6,30.12,WSW,245,0.0,5.0,76,0.00,OVC,OVC,0.01,WeatherDisplay:10.37,2013-06-20 21:58:00,
2013-06-20 15:03:00,59.1,50.8,30.12,WSW,250,1.0,5.0,74,0.00,OVC,OVC,0.01,WeatherDisplay:10.37,2013-06-20 22:03:00,
2013-06-20 15:08:00,59.0,51.1,30.12,WSW,253,3.0,12.0,75,0.00,OVC,OVC,0.01,WeatherDisplay:10.37,2013-06-20 22:08:00,
2013-06-20 15:13:00,58.9,51.0,30.12,SW,235,1.0,8.0,75,0.00,OVC,OVC,0.01,WeatherDisplay:10.37,2013-06-20 22:13:00,
2013-06-20 15:18:00,58.7,51.2,30.13,West,259,2.0,7.0,76,0.01,RA,RA,0.02,WeatherDisplay:10.37,2013-06-20 22:18:00,
2013-06-20 15:23:00,58.4,51.6,30.13,WNW,286,1.0,5.0,78,0.00,RA,RA,0.02,WeatherDisplay:10.37,2013-06-20 22:23:00,
2013-06-20 15:28:00,58.2,52.1,30.13,West,264,0.0,1.0,80,0.00,OVC,OVC,0.02,WeatherDisplay:10.37,2013-06-20 22:28:00,
2013-06-20 15:33:00,58.1,52.0,30.13,West,265,1.0,4.0,80,0.00,OVC,OVC,0.02,WeatherDisplay:10.37,2013-06-20 22:33:00,
2013-06-20 15:38:00,58.0,52.2,30.13,WSW,243,1.0,3.0,81,0.00,OVC,OVC,0.02,WeatherDisplay:10.37,2013-06-20 22:38:00,
2013-06-20 15:43:00,58.0,52.2,30.13,WSW,237,0.0,6.0,81,0.01,RA,RA,0.03,WeatherDisplay:10.37,2013-06-20 22:43:00,
2013-06-20 15:48:00,57.9,51.4,30.13,WSW,241,1.0,6.0,79,0.00,RA,RA,0.03,WeatherDisplay:10.37,2013-06-20 22:48:00,
2013-06-20 15:53:00,57.5,51.7,30.14,West,265,1.0,5.0,81,0.01,RA,RA,0.04,WeatherDisplay:10.37,2013-06-20 22:53:00,
2013-06-20 15:58:00,57.3,51.9,30.14,NW,323,1.0,2.0,82,0.00,RA,RA,0.04,WeatherDisplay:10.37,2013-06-20 22:58:00,
2013-06-20 16:03:00,57.1,51.6,30.14,West,277,1.0,3.0,82,0.00,OVC,OVC,0.04,WeatherDisplay:10.37,2013-06-20 23:03:00,
2013-06-20 16:08:00,56.9,52.1,30.14,West,273,0.0,3.0,84,0.01,RA,RA,0.05,WeatherDisplay:10.37,2013-06-20 23:08:00,
2013-06-20 16:13:00,56.7,52.3,30.15,WNW,289,0.0,3.0,85,0.01,RA,RA,0.06,WeatherDisplay:10.37,2013-06-20 23:13:00,
2013-06-20 16:18:00,56.5,52.4,30.15,West,271,1.0,2.0,86,0.00,RA,RA,0.06,WeatherDisplay:10.37,2013-06-20 23:18:00,
2013-06-20 16:23:00,56.3,52.5,30.15,WSW,245,0.0,1.0,87,0.01,RA,RA,0.07,WeatherDisplay:10.37,2013-06-20 23:23:00,
2013-06-20 16:28:00,56.1,52.6,30.15,WSW,251,0.0,4.0,88,0.01,RA,RA,0.08,WeatherDisplay:10.37,2013-06-20 23:28:00,
2013-06-20 16:33:00,56.1,52.9,30.15,WSW,251,0.0,1.0,89,0.00,RA,RA,0.08,WeatherDisplay:10.37,2013-06-20 23:33:00,
2013-06-20 16:38:00,56.2,53.3,30.15,WSW,250,0.0,1.0,90,0.01,RA,RA,0.09,WeatherDisplay:10.37,2013-06-20 23:38:00,
2013-06-20 16:43:00,56.2,53.0,30.16,SSW,196,0.0,1.0,89,0.01,RA,RA,0.10,WeatherDisplay:10.37,2013-06-20 23:43:00,
2013-06-20 16:48:00,56.1,52.9,30.16,SE,141,0.0,1.0,89,0.01,RA,RA,0.11,WeatherDisplay:10.37,2013-06-20 23:48:00,
2013-06-20 16:53:00,56.2,53.3,30.16,SE,140,0.0,1.0,90,0.01,RA,RA,0.12,WeatherDisplay:10.37,2013-06-20 23:53:00,
2013-06-20 16:58:00,56.1,53.2,30.16,SE,139,0.0,0.0,90,0.01,RA,RA,0.13,WeatherDisplay:10.37,2013-06-20 23:58:00,
2013-06-20 17:03:00,56.1,53.5,30.16,SE,139,0.0,0.0,91,0.01,RA,RA,0.14,WeatherDisplay:10.37,2013-06-21 00:03:00,
2013-06-20 17:08:00,56.1,53.8,30.16,SE,139,0.0,0.0,92,0.01,RA,RA,0.15,WeatherDisplay:10.37,2013-06-21 00:08:00,
2013-06-20 17:13:00,56.1,53.8,30.17,SE,139,0.0,0.0,92,0.02,RA,RA,0.17,WeatherDisplay:10.37,2013-06-21 00:13:00,
2013-06-20 17:18:00,55.8,53.2,30.17,SSE,153,0.0,0.0,91,0.00,RA,RA,0.17,WeatherDisplay:10.37,2013-06-21 00:18:00,
2013-06-20 17:23:00,55.8,53.5,30.16,SSE,166,0.0,0.0,92,0.01,RA,RA,0.18,WeatherDisplay:10.37,2013-06-21 00:23:00,
2013-06-20 17:28:00,55.9,53.6,30.17,SSE,166,0.0,0.0,92,0.00,RA,RA,0.18,WeatherDisplay:10.37,2013-06-21 00:28:00,
2013-06-20 17:33:00,55.7,53.1,30.16,SSW,210,0.0,0.0,91,0.01,RA,RA,0.19,WeatherDisplay:10.37,2013-06-21 00:33:00,
2013-06-20 17:38:00,55.5,53.2,30.17,NW,314,0.0,0.0,92,0.00,RA,RA,0.19,WeatherDisplay:10.37,2013-06-21 00:38:00,
2013-06-20 17:43:00,55.4,53.1,30.17,NW,308,0.0,0.0,92,0.01,RA,RA,0.20,WeatherDisplay:10.37,2013-06-21 00:43:00,
2013-06-20 17:48:00,55.5,53.5,30.17,NW,307,0.0,0.0,93,0.00,RA,RA,0.20,WeatherDisplay:10.37,2013-06-21 00:48:00,
2013-06-20 17:53:00,55.6,53.9,30.17,NW,307,0.0,0.0,94,0.01,RA,RA,0.21,WeatherDisplay:10.37,2013-06-21 00:53:00,
2013-06-20 17:58:00,55.7,53.7,30.17,NW,307,0.0,0.0,93,0.00,RA,RA,0.21,WeatherDisplay:10.37,2013-06-21 00:58:00,
2013-06-20 18:03:00,55.7,54.0,30.17,NW,307,0.0,0.0,94,0.00,OVC,OVC,0.21,WeatherDisplay:10.37,2013-06-21 01:03:00,
2013-06-20 18:08:00,55.8,54.1,30.17,NW,310,0.0,2.0,94,0.00,OVC,OVC,0.21,WeatherDisplay:10.37,2013-06-21 01:08:00,
2013-06-20 18:13:00,55.8,54.1,30.17,NW,313,0.0,0.0,94,0.00,OVC,OVC,0.21,WeatherDisplay:10.37,2013-06-21 01:13:00,
2013-06-20 18:18:00,55.8,54.1,30.17,NW,314,0.0,0.0,94,0.01,RA,RA,0.22,WeatherDisplay:10.37,2013-06-21 01:18:00,
2013-06-20 18:23:00,55.8,53.8,30.17,NW,314,0.0,0.0,93,0.00,RA,RA,0.22,WeatherDisplay:10.37,2013-06-21 01:23:00,
2013-06-20 18:28:00,55.7,53.7,30.17,WNW,303,0.0,1.0,93,0.00,OVC,OVC,0.22,WeatherDisplay:10.37,2013-06-21 01:28:00,
2013-06-20 18:33:00,55.6,53.6,30.17,South,185,0.0,0.0,93,0.00,OVC,OVC,0.22,WeatherDisplay:10.37,2013-06-21 01:33:00,
2013-06-20 18:38:00,55.5,53.6,30.17,SSE,165,0.0,0.0,93,0.00,OVC,OVC,0.22,WeatherDisplay:10.37,2013-06-21 01:38:00,
2013-06-20 18:43:00,55.5,53.5,30.17,SSE,165,0.0,0.0,93,0.00,OVC,OVC,0.22,WeatherDisplay:10.37,2013-06-21 01:43:00,
2013-06-20 18:48:00,55.5,53.5,30.17,SSE,165,0.0,0.0,93,0.00,OVC,OVC,0.22,WeatherDisplay:10.37,2013-06-21 01:48:00,
2013-06-20 18:53:00,55.4,53.4,30.17,SSE,164,0.0,0.0,93,0.00,OVC,OVC,0.22,WeatherDisplay:10.37,2013-06-21 01:53:00,
2013-06-20 18:58:00,55.3,53.6,30.17,South,179,0.0,0.0,94,0.00,OVC,OVC,0.22,WeatherDisplay:10.37,2013-06-21 01:58:00,
2013-06-20 19:03:00,55.3,53.6,30.17,SSW,198,0.0,0.0,94,0.00,OVC,OVC,0.22,WeatherDisplay:10.37,2013-06-21 02:03:00,
2013-06-20 19:08:00,55.2,53.5,30.18,SSW,201,0.0,0.0,94,0.00,OVC,OVC,0.22,WeatherDisplay:10.37,2013-06-21 02:08:00,
2013-06-20 19:13:00,55.0,53.3,30.18,SSW,201,0.0,0.0,94,0.00,OVC,OVC,0.22,WeatherDisplay:10.37,2013-06-21 02:13:00,
2013-06-20 19:18:00,55.0,53.3,30.18,SSW,201,0.0,0.0,94,0.00,OVC,OVC,0.22,WeatherDisplay:10.37,2013-06-21 02:18:00,
2013-06-20 19:23:00,55.0,53.3,30.18,SSW,201,0.0,0.0,94,0.00,OVC,OVC,0.22,WeatherDisplay:10.37,2013-06-21 02:23:00,
2013-06-20 19:28:00,55.0,53.3,30.19,SSW,201,0.0,0.0,94,0.00,OVC,OVC,0.22,WeatherDisplay:10.37,2013-06-21 02:28:00,
2013-06-20 19:33:00,54.9,53.2,30.19,SSW,201,0.0,0.0,94,0.01,RA,RA,0.23,WeatherDisplay:10.37,2013-06-21 02:33:00,
2013-06-20 19:38:00,54.9,53.2,30.19,SSW,201,0.0,0.0,94,0.00,RA,RA,0.23,WeatherDisplay:10.37,2013-06-21 02:38:00,
2013-06-20 19:43:00,54.9,53.2,30.19,SSW,201,0.0,0.0,94,0.01,RA,RA,0.24,WeatherDisplay:10.37,2013-06-21 02:43:00,
2013-06-20 19:48:00,54.8,53.4,30.19,SSW,201,0.0,0.0,95,0.00,RA,RA,0.24,WeatherDisplay:10.37,2013-06-21 02:48:00,
2013-06-20 19:53:00,54.6,52.9,30.19,SSW,201,0.0,0.0,94,0.00,OVC,OVC,0.24,WeatherDisplay:10.37,2013-06-21 02:53:00,
2013-06-20 19:58:00,54.5,52.8,30.19,SSW,200,0.0,0.0,94,0.00,OVC,OVC,0.24,WeatherDisplay:10.37,2013-06-21 02:58:00,
2013-06-20 20:03:00,54.4,52.7,30.19,SSW,200,0.0,0.0,94,0.01,RA,RA,0.25,WeatherDisplay:10.37,2013-06-21 03:03:00,
2013-06-20 20:08:00,54.3,52.6,30.19,SSW,200,0.0,0.0,94,0.00,RA,RA,0.25,WeatherDisplay:10.37,2013-06-21 03:08:00,
2013-06-20 20:13:00,54.2,52.5,30.19,South,185,0.0,1.0,94,0.01,RA,RA,0.26,WeatherDisplay:10.37,2013-06-21 03:13:00,
2013-06-20 20:18:00,54.1,52.4,30.20,SSE,159,0.0,0.0,94,0.00,RA,RA,0.26,WeatherDisplay:10.37,2013-06-21 03:18:00,
2013-06-20 20:23:00,54.0,52.3,30.20,SSE,150,0.0,0.0,94,0.00,OVC,OVC,0.26,WeatherDisplay:10.37,2013-06-21 03:23:00,
2013-06-20 20:28:00,54.0,52.6,30.20,SSE,150,0.0,0.0,95,0.00,OVC,OVC,0.26,WeatherDisplay:10.37,2013-06-21 03:28:00,
2013-06-20 20:33:00,53.9,52.5,30.20,SSE,150,0.0,0.0,95,0.01,RA,RA,0.27,WeatherDisplay:10.37,2013-06-21 03:33:00,
2013-06-20 20:38:00,53.9,52.5,30.20,SSE,150,0.0,0.0,95,0.00,RA,RA,0.27,WeatherDisplay:10.37,2013-06-21 03:38:00,
2013-06-20 20:43:00,53.8,52.4,30.20,SSE,150,0.0,0.0,95,0.00,OVC,OVC,0.27,WeatherDisplay:10.37,2013-06-21 03:43:00,
2013-06-20 20:48:00,53.7,52.3,30.20,SSE,150,0.0,0.0,95,0.01,RA,RA,0.28,WeatherDisplay:10.37,2013-06-21 03:48:00,
2013-06-20 20:53:00,53.6,52.2,30.20,SSE,151,0.0,0.0,95,0.00,RA,RA,0.28,WeatherDisplay:10.37,2013-06-21 03:53:00,
2013-06-20 20:58:00,53.5,52.1,30.21,SSE,155,0.0,0.0,95,0.00,OVC,OVC,0.28,WeatherDisplay:10.37,2013-06-21 03:58:00,
2013-06-20 21:03:00,53.4,52.0,30.21,SSE,160,0.0,0.0,95,0.00,OVC,OVC,0.28,WeatherDisplay:10.37,2013-06-21 04:03:00,
2013-06-20 21:08:00,53.3,51.9,30.21,SSE,163,0.0,1.0,95,0.01,RA,RA,0.29,WeatherDisplay:10.37,2013-06-21 04:08:00,
2013-06-20 21:13:00,53.2,51.8,30.21,South,171,0.0,0.0,95,0.00,RA,RA,0.29,WeatherDisplay:10.37,2013-06-21 04:13:00,
2013-06-20 21:18:00,53.1,51.7,30.21,South,169,0.0,0.0,95,0.00,OVC,OVC,0.29,WeatherDisplay:10.37,2013-06-21 04:18:00,
2013-06-20 21:23:00,53.0,51.6,30.21,SSE,163,0.0,0.0,95,0.00,OVC,OVC,0.29,WeatherDisplay:10.37,2013-06-21 04:23:00,
2013-06-20 21:28:00,52.9,51.5,30.21,SSE,166,0.0,0.0,95,0.00,OVC,OVC,0.29,WeatherDisplay:10.37,2013-06-21 04:28:00,
2013-06-20 21:33:00,52.9,51.5,30.22,South,169,0.0,0.0,95,0.00,OVC,OVC,0.29,WeatherDisplay:10.37,2013-06-21 04:33:00,
2013-06-20 21:38:00,52.8,51.4,30.22,SSE,162,0.0,0.0,95,0.00,OVC,OVC,0.29,WeatherDisplay:10.37,2013-06-21 04:38:00,
2013-06-20 21:43:00,52.7,51.3,30.22,SSE,159,0.0,0.0,95,0.00,OVC,OVC,0.29,WeatherDisplay:10.37,2013-06-21 04:43:00,
2013-06-20 21:48:00,52.7,51.6,30.22,SSE,164,0.0,0.0,96,0.00,OVC,OVC,0.29,WeatherDisplay:10.37,2013-06-21 04:48:00,
2013-06-20 21:53:00,52.6,51.2,30.23,SSE,165,0.0,0.0,95,0.00,OVC,OVC,0.29,WeatherDisplay:10.37,2013-06-21 04:53:00,
2013-06-20 21:58:00,52.5,51.1,30.23,SSE,164,0.0,0.0,95,0.00,OVC,OVC,0.29,WeatherDisplay:10.37,2013-06-21 04:58:00,
2013-06-20 22:03:00,52.4,51.0,30.23,SSE,158,0.0,0.0,95,0.00,OVC,OVC,0.29,WeatherDisplay:10.37,2013-06-21 05:03:00,
2013-06-20 22:08:00,52.4,51.0,30.23,SSE,165,0.0,0.0,95,0.00,OVC,OVC,0.29,WeatherDisplay:10.37,2013-06-21 05:08:00,
2013-06-20 22:13:00,52.4,51.3,30.23,South,174,0.0,0.0,96,0.00,OVC,OVC,0.29,WeatherDisplay:10.37,2013-06-21 05:13:00,
2013-06-20 22:18:00,52.3,51.2,30.23,SSE,167,0.0,0.0,96,0.00,OVC,OVC,0.29,WeatherDisplay:10.37,2013-06-21 05:18:00,
2013-06-20 22:23:00,52.3,51.2,30.23,SSE,152,0.0,0.0,96,0.00,OVC,OVC,0.29,WeatherDisplay:10.37,2013-06-21 05:23:00,
2013-06-20 22:28:00,52.2,51.1,30.23,SE,143,0.0,0.0,96,0.00,OVC,OVC,0.29,WeatherDisplay:10.37,2013-06-21 05:28:00,
2013-06-20 22:33:00,52.2,51.1,30.23,South,171,0.0,0.0,96,0.00,OVC,OVC,0.29,WeatherDisplay:10.37,2013-06-21 05:33:00,
2013-06-20 22:38:00,52.2,51.1,30.23,SSW,199,0.0,0.0,96,0.00,OVC,OVC,0.29,WeatherDisplay:10.37,2013-06-21 05:38:00,
2013-06-20 22:43:00,52.2,51.1,30.23,SSW,198,0.0,0.0,96,0.00,OVC,OVC,0.29,WeatherDisplay:10.37,2013-06-21 05:43:00,
2013-06-20 22:48:00,52.2,51.1,30.22,South,174,0.0,0.0,96,0.00,OVC,OVC,0.29,WeatherDisplay:10.37,2013-06-21 05:48:00,
2013-06-20 22:53:00,52.2,51.1,30.23,SSE,150,0.0,0.0,96,0.00,OVC,OVC,0.29,WeatherDisplay:10.37,2013-06-21 05:53:00,
2013-06-20 22:58:00,52.1,51.0,30.23,SSE,150,0.0,0.0,96,0.00,OVC,OVC,0.29,WeatherDisplay:10.37,2013-06-21 05:58:00,
2013-06-20 23:03:00,52.1,51.0,30.23,SSE,150,0.0,0.0,96,0.00,OVC,OVC,0.29,WeatherDisplay:10.37,2013-06-21 06:03:00,
2013-06-20 23:08:00,52.2,51.1,30.23,SSE,150,0.0,0.0,96,0.00,OVC,OVC,0.29,WeatherDisplay:10.37,2013-06-21 06:08:00,
2013-06-20 23:13:00,52.2,51.1,30.23,SSE,150,0.0,0.0,96,0.00,OVC,OVC,0.29,WeatherDisplay:10.37,2013-06-21 06:13:00,
2013-06-20 23:18:00,52.2,51.1,30.23,SSE,150,0.0,0.0,96,0.00,OVC,OVC,0.29,WeatherDisplay:10.37,2013-06-21 06:18:00,
2013-06-20 23:23:00,52.2,51.1,30.23,SSE,150,0.0,0.0,96,0.00,OVC,OVC,0.29,WeatherDisplay:10.37,2013-06-21 06:23:00,
2013-06-20 23:28:00,52.2,51.1,30.23,SSE,150,0.0,0.0,96,0.00,OVC,OVC,0.29,WeatherDisplay:10.37,2013-06-21 06:28:00,
2013-06-20 23:33:00,52.2,51.1,30.23,SSE,155,0.0,0.0,96,0.00,OVC,OVC,0.29,WeatherDisplay:10.37,2013-06-21 06:33:00,
2013-06-20 23:38:00,52.2,51.1,30.23,SSE,160,0.0,0.0,96,0.00,OVC,OVC,0.29,WeatherDisplay:10.37,2013-06-21 06:38:00,
2013-06-20 23:43:00,52.2,51.1,30.23,SSE,162,0.0,0.0,96,0.00,OVC,OVC,0.29,WeatherDisplay:10.37,2013-06-21 06:43:00,
2013-06-20 23:48:00,52.2,51.1,30.23,SSE,159,0.0,0.0,96,0.00,OVC,OVC,0.29,WeatherDisplay:10.37,2013-06-21 06:48:00,
2013-06-20 23:58:00,52.1,51.0,30.23,SE,138,0.0,0.0,96,0.00,OVC,OVC,0.29,WeatherDisplay:10.37,2013-06-21 06:58:00,